This demonstration page uses our WeatherBlox Daily Observations layout. Learn more.

Left ArrowRight Arrow

Hourly Observations for July 29, 2021

Temp ( °F °C ) Dew Point ( °F °C ) Humidity (%) Winds ( mph kmh ) Pressure ( in mb ) Visibility ( mi km ) Precip ( " mm )
12:15 am 00:15 Clear 73 23 73 23 100 100 N N/A 29.98 1015 10 16 N/A
12:35 am 00:35 Clear 72 22 72 22 100 100 N N/A 29.99 1016 10 16 N/A
12:55 am 00:55 Clear 72 22 72 22 100 100 N N/A 29.98 1015 7 11 N/A
1:15 am 01:15 Clear 72 22 72 22 100 100 N N/A 29.99 1016 7 11 N/A
1:35 am 01:35 Clear 70 21 70 21 100 100 N N/A 30.01 1016 7 11 N/A
1:55 am 01:55 Clear 70 21 70 21 100 100 N N/A 30.01 1016 7 11 N/A
2:15 am 02:15 Clear 70 21 70 21 100 100 N N/A 30.00 1016 7 11 N/A
2:35 am 02:35 Clear 72 22 72 22 100 100 S 6 9 29.98 1015 7 11 N/A
2:55 am 02:55 Clear 72 22 72 22 100 100 S 6 9 29.98 1015 7 11 N/A
3:15 am 03:15 Clear 72 22 72 22 100 100 N N/A 29.99 1016 7 11 N/A
3:35 am 03:35 Clear 72 22 72 22 100 100 S 3 6 29.98 1015 7 11 N/A
3:55 am 03:55 Clear 72 22 72 22 100 100 SW 5 7 29.99 1016 5 8 N/A
4:15 am 04:15 Clear 72 22 72 22 100 100 SW 5 7 30.00 1016 4 6 N/A
4:35 am 04:35 Clear 72 22 72 22 100 100 WSW 6 9 30.01 1016 4 6 N/A
4:55 am 04:55 Clear 72 22 72 22 100 100 WSW 3 6 30.00 1016 3 5 N/A
5:15 am 05:15 Mostly Cloudy 72 22 72 22 100 100 SW 5 7 29.99 1016 3 5 N/A
5:35 am 05:35 Partly Cloudy 72 22 72 22 100 100 WSW 6 9 29.98 1015 3 4 N/A
5:55 am 05:55 Partly Cloudy 73 23 73 23 100 100 SW 7 11 29.97 1015 3 5 N/A
6:15 am 06:15 Clear 73 23 73 23 100 100 SW 8 13 29.97 1015 7 11 N/A
6:35 am 06:35 Clear 73 23 73 23 100 100 SW 8 13 29.96 1015 7 11 N/A
6:55 am 06:55 Sunny 73 23 73 23 100 100 SW 6 9 29.96 1015 7 11 N/A
7:15 am 07:15 Mostly Cloudy 73 23 73 23 100 100 WSW 7 11 29.98 1015 7 11 N/A
7:35 am 07:35 Mostly Cloudy 73 23 73 23 100 100 WSW 8 13 29.99 1016 7 11 N/A
7:55 am 07:55 Partly Cloudy 75 24 75 24 100 100 SW 12 19 29.97 1015 7 11 N/A
8:15 am 08:15 Partly Cloudy 75 24 75 24 100 100 SSW 15 24 29.91 1013 7 11 N/A
8:35 am 08:35 Partly Cloudy 75 24 75 24 100 100 SSW 15 24 29.89 1012 7 11 N/A
8:55 am 08:55 Partly Cloudy 75 24 75 24 100 100 SW 15 24 29.91 1013 7 11 N/A
9:15 am 09:15 Sunny 75 24 75 24 100 100 WSW 13 20 29.94 1014 10 16 N/A
9:35 am 09:35 Sunny 77 25 77 25 100 100 WSW 7 11 29.94 1014 10 16 N/A
9:55 am 09:55 Sunny 77 25 77 25 100 100 SW 12 19 29.93 1014 10 16 N/A
10:15 am 10:15 Sunny 77 25 77 25 100 100 WSW 8 13 29.95 1014 10 16 N/A
10:35 am 10:35 Sunny 77 25 77 25 100 100 SW 7 11 29.95 1014 10 16 N/A
10:55 am 10:55 Sunny 79 26 79 26 100 100 WSW 8 13 29.96 1015 10 16 N/A
11:15 am 11:15 Sunny 79 26 79 26 100 100 SW 6 9 29.94 1014 10 16 N/A
11:35 am 11:35 Sunny 79 26 79 26 100 100 SW 7 11 29.94 1014 7 11 N/A
11:55 am 11:55 Sunny 79 26 79 26 100 100 SSW 7 11 29.93 1014 10 16 N/A
12:15 pm 12:15 Sunny 81 27 81 27 100 100 SSW 9 15 29.92 1013 7 11 N/A
12:35 pm 12:35 Sunny 81 27 81 27 100 100 SSW 8 13 29.91 1013 10 16 N/A
12:55 pm 12:55 Sunny 82 28 81 27 94 94 SW 9 15 29.91 1013 10 16 N/A
1:15 pm 13:15 Mostly Cloudy 82 28 82 28 100 100 WSW 10 17 29.92 1013 10 16 N/A
1:35 pm 13:35 Partly Cloudy 84 29 82 28 94 94 SW 7 11 29.89 1012 10 16 N/A
1:55 pm 13:55 Sunny 86 30 82 28 89 89 SW 7 11 29.89 1012 10 16 N/A
2:15 pm 14:15 Sunny 86 30 82 28 89 89 W 13 20 29.89 1012 10 16 N/A
2:35 pm 14:35 Partly Cloudy 86 30 81 27 84 84 WSW 10 17 29.89 1012 10 16 N/A
2:55 pm 14:55 Mostly Cloudy 88 31 81 27 79 79 WSW 12 19 29.89 1012 10 16 N/A
3:15 pm 15:15 Cloudy 86 30 81 27 84 84 W 10 17 29.89 1012 10 16 N/A
3:35 pm 15:35 Cloudy 86 30 81 27 84 84 W 10 17 29.89 1012 10 16 N/A
3:55 pm 15:55 Cloudy 86 30 82 28 89 89 WSW 10 17 29.89 1012 10 16 N/A
4:15 pm 16:15 Partly Cloudy 86 30 82 28 89 89 WSW 13 20 29.87 1011 10 16 N/A
4:35 pm 16:35 Partly Cloudy 86 30 82 28 89 89 SW 12 19 29.86 1011 10 16 N/A
4:55 pm 16:55 Partly Cloudy 84 29 81 27 89 89 WSW 16 26 29.85 1011 10 16 N/A
5:15 pm 17:15 Mostly Cloudy 84 29 81 27 89 89 WSW 13 20 29.86 1011 10 16 N/A
5:35 pm 17:35 Mostly Cloudy 86 30 82 28 89 89 WSW 14 22 29.87 1011 10 16 N/A
5:55 pm 17:55 Cloudy 84 29 81 27 89 89 NNW 10 17 29.87 1012 10 16 N/A
6:15 pm 18:15 Cloudy 81 27 81 27 100 100 N N/A 29.88 1012 10 16 N/A
6:35 pm 18:35 Mostly Cloudy 82 28 81 27 94 94 NNW 6 9 29.87 1012 10 16 N/A
6:55 pm 18:55 Mostly Cloudy 84 29 81 27 89 89 N 8 13 29.86 1011 10 16 N/A
7:15 pm 19:15 Cloudy 82 28 81 27 94 94 WNW 7 11 29.87 1012 10 16 N/A
7:35 pm 19:35 Cloudy 81 27 81 27 100 100 W 5 7 29.87 1011 10 16 N/A
7:55 pm 19:55 Mostly Cloudy 82 28 82 28 100 100 W 3 6 29.87 1012 10 16 N/A
8:15 pm 20:15 Mostly Cloudy 82 28 81 27 94 94 NW 9 15 29.86 1011 10 16 N/A
8:35 pm 20:35 Partly Cloudy 81 27 81 27 100 100 NW 8 13 29.87 1011 10 16 N/A
8:55 pm 20:55 Partly Cloudy 81 27 81 27 100 100 NW 6 9 29.88 1012 10 16 N/A
9:15 pm 21:15 Partly Cloudy 79 26 79 26 100 100 NNW 5 7 29.89 1012 10 16 N/A
9:35 pm 21:35 Partly Cloudy 79 26 79 26 100 100 NNW 3 6 29.90 1013 10 16 N/A
9:55 pm 21:55 Mostly Cloudy 79 26 79 26 100 100 N 5 7 29.90 1013 10 16 N/A
10:15 pm 22:15 Mostly Cloudy 79 26 79 26 100 100 N 8 13 29.90 1013 10 16 N/A
10:35 pm 22:35 Partly Cloudy 77 25 77 25 100 100 N 8 13 29.92 1013 10 16 N/A
10:55 pm 22:55 Partly Cloudy 77 25 77 25 100 100 N 7 11 29.92 1013 10 16 N/A
11:15 pm 23:15 Clear 75 24 75 24 100 100 N 5 7 29.94 1014 10 16 N/A
11:35 pm 23:35 Clear 73 23 73 23 100 100 NNW 7 11 29.95 1014 10 16 N/A
11:55 pm 23:55 Clear 73 23 73 23 100 100 NNW 8 13 29.96 1015 10 16 N/A

Powered by AerisWeather